Flag for Angola Weather past 2 weeks in Lubango, Angola

Now
68 °F

Mild.


Feels Like: 68 °F
Forecast: 57 / 80 °F
Wind: 6 mph from South

Location: Ondangwa

Current Time: Aug 28, 2014 at 1:12:42 AM

Latest Report: Aug 28, 2014 at 12:00 AM


Visibility: N/A

Pressure: 30.01 "Hg

Humidity: 16%

Dew point: 19 °F

Location of LubangoLocation

Historic Weather in Lubango — Graph

°F

Lubango temperature yesterday

Maximum temperature yesterday: 93 °F (at 1:00 PM)
Minimum temperature yesterday: 55 °F (at 6:00 AM)
Average temperature yesterday: 72 °F

Past Weeks' High & Low Weather Summary

 TemperatureHumidityPressure
High95 °F (Aug 24, 2:00 PM)63% (Aug 14, 4:00 PM)30.18 "Hg (Aug 14, 4:00 PM)
Low52 °F (Aug 26, 6:00 AM)5% (Aug 16, 10:00 AM)29.92 "Hg (Aug 20, 4:00 PM)
Average75 °F19%30.04 "Hg
* Reported Midnight between Aug 12 and Aug 13 — Midnight between Aug 27 and Aug 28, Lubango, Weather by CustomWeather, © 2014

Note: Actual official high and low records may vary slightly from our data, if they occured in-between our weather recording intervals... More about our weather records

Advertising

Lubango weather history for previous 24 hours

 ConditionsComfort  
Time TempWeatherWind HumidityBarometerVisibility
12:00 AM
Aug 28
68 °FMild.6 mph16%30.01 "HgN/A
11:00 PM
Aug 27
70 °FMild.3 mph13%30.01 "HgN/A
10:00 PM72 °FMild.6 mph12%29.98 "HgN/A
9:00 PM68 °FMild.1 mph16%30.01 "HgN/A
8:00 PM70 °FMild.2 mph13%29.98 "HgN/A
6:00 PM84 °FPleasantly warm.3 mph8%29.95 "HgN/A
5:00 PM90 °FHot.6 mph6%29.92 "HgN/A
3:00 PM91 °FHot.3 mph6%29.92 "HgN/A
1:00 PM93 °FSunny.6 mph5%29.98 "Hg10 mi
12:00 PM90 °FSunny.7 mph6%30.01 "Hg10 mi
11:00 AM86 °FSunny.2 mph8%30.04 "Hg10 mi
10:00 AM81 °FSunny.3 mph10%30.07 "Hg10 mi
9:00 AM73 °FSunny.6 mph13%30.07 "Hg10 mi
8:00 AM68 °FSunny.No wind18%30.07 "Hg10 mi
7:00 AM59 °FSunny.No wind27%30.04 "Hg10 mi
6:00 AM55 °FRefreshingly cool.No wind28%30.04 "HgN/A
5:00 AM59 °FRefreshingly cool.5 mph25%30.01 "HgN/A
4:00 AM61 °FRefreshingly cool.5 mph20%30.01 "HgN/A
3:00 AM59 °FRefreshingly cool.2 mph20%30.01 "HgN/A
2:00 AM63 °FMild.3 mph16%30.04 "HgN/A
1:00 AM59 °FRefreshingly cool.3 mph20%30.04 "HgN/A
Weather by CustomWeather, © 2014

See weather overviewHow to use our weather pages